Station FFIA2 - Five Fingers, AK Image indicating link to RSS feed of recent meteorological observations for station FFIA2


Conditions at FFIA2 as of
(1:00 pm AKDT)
2100 GMT on 05/28/2024:
     

Click on the graph icon in the table below to see a time series plot of the last five days of that observation.

5-day plot - Wind Direction Wind Direction (WDIR): NW ( 320 deg true )
5-day plot - Wind Speed Wind Speed (WSPD): 6 kts
5-day plot - Wind Gust Wind Gust (GST): 6 kts
5-day plot - Atmospheric Pressure Atmospheric Pressure (PRES):29.93 in
5-day plot - Pressure Tendency Pressure Tendency (PTDY):+0.00 in ( Steady )
5-day plot - Air Temperature Air Temperature (ATMP): 47.8 °F
5-day plot - Wind Chill Wind Chill (CHILL): 44.6 °F
5-day plot - Wind Speed at 10 Meters Wind Speed at 10 meters (WSPD10M): 6 kts
5-day plot - Wind Speed at 20 Meters Wind Speed at 20 meters (WSPD20M): 6 kts
5-day plot -  Wind Speed, Wind Gust and Atmospheric Pressure Combined plot of Wind Speed, Gust, and Air Pressure
Continuous Winds
TIME
(AKDT)
5-day plot - Wind Direction WDIR 5-day plot - Wind Speed WSPD
1:00 pmNW ( 311 deg ) 6 kts
12:50 pmNW ( 308 deg ) 5 kts
12:40 pmNNW ( 330 deg ) 7 kts
12:30 pmNNW ( 329 deg ) 8 kts
12:20 pmNNW ( 339 deg ) 8 kts
12:10 pmNNW ( 343 deg ) 8 kts
 
Peak gust during the measurement hour
TIME
(AKDT)
5-day plot - Gust Direction GDR 5-day plot - Gust Speed GST
12:03 pmN ( 350 deg ) 9 kts
Previous observations
TIME
(AKDT)
5-day plot - Wind Direction
WDIR
 
5-day plot - Wind Speed
WSPD
kts
5-day plot - Wind Gust
GST
kts
5-day plot - Wave Height
WVHT
ft
5-day plot - Dominant Wave Period
DPD
sec
5-day plot - Average Wave Period
APD
sec
5-day plot - Mean Wave Direction
MWD
 
5-day plot - Atmospheric Pressure
PRES
in
5-day plot - Pressure Tendency
PTDY
in
5-day plot - Air Temperature
ATMP
°F
5-day plot - Water Temperature
WTMP
°F
5-day plot - Dew Point
DEWP
°F
5-day plot - Salinity
SAL
psu
5-day plot - Visibility
VIS
nmi
5-day plot - Tide (above MLLW)
TIDE
ft
2024-05-28 12:00 pm N 9 9----29.92-0.01 47.1-----
2024-05-28 11:00 am N 7 7----29.93-0.01 46.6-----
2024-05-28 10:00 am N 7 7----29.93-0.01 46.6-----
2024-05-28 09:00 amNNE 5 6----29.94+0.00 45.5-----
2024-05-28 08:00 am NE 1 2----29.94+0.00 45.0-----
2024-05-28 07:00 am E 2 3----29.95+0.00 44.2-----
2024-05-28 06:00 am NE 4 4----29.94+0.00 44.1-----
2024-05-28 05:00 am- 0 0----29.95+0.00 44.6-----
2024-05-28 04:00 am NE 5 6----29.94-0.01 44.6-----
2024-05-28 03:00 amNNE 3 3----29.94-0.01 45.1-----
2024-05-28 02:00 amNNW 4 5----29.95+0.00 45.0-----
2024-05-28 01:00 am NE 2 2----29.95+0.00 45.1-----
2024-05-28 12:00 am- 0 1----29.96+0.01 45.1-----
2024-05-27 11:00 pmSSE 11 12----29.95+0.01 45.3-----
2024-05-27 10:00 pm SE 11 12----29.95+0.01 46.4-----
2024-05-27 09:00 pmESE 9 9----29.94+0.01 46.4-----
2024-05-27 08:00 pmESE 2 2----29.94+0.02 45.3-----
2024-05-27 07:00 pmSSE 3 4----29.94+0.04 45.3-----
2024-05-27 06:00 pmSSW 3 4----29.93+0.04 46.0-----
2024-05-27 05:00 pm SE 11 12----29.91+0.03 46.9-----
2024-05-27 04:00 pm S 14 16----29.90+0.02 47.3-----
2024-05-27 03:00 pmSSE 11 13----29.89+0.01 50.2-----
2024-05-27 02:00 pm S 13 14----29.88+0.01 47.8-----
2024-05-27 01:00 pm S 10 10----29.88+0.02 47.1-----